Weather in Klyshky

Ukraine / Sumi District     51°46′09″N   33°17′53″E
temp.,
°C
wind,
m/s
gust,
m/s
humid.,
%
clouds,
%
prec.,
mm/h
press.,
hPa
HPBL,
m
21 october, thu
thu2100:00+11sw91866100 0.0 1014693
03:00+11sw81765100 0.0 1013509
06:00+9ssw7177197 0.1 1011431
09:00+10ssw81869100 0.1 1010511
12:00+14sw8166083 0.0 1009626
15:00+15ssw81458100 0.0 1007762
18:00+13ssw81761100 0.0 1006672
21:00+13ssw91855100 0.0 1004671
22 october, fri
fri2200:00+12ssw81655100 0.0 1003476
03:00+12sw71458100 0.0 1004496
06:00+12sw6136770 0.0 1004645
09:00+12wsw7137169 0.0 10061011
12:00+14wsw915544 0.0 10081521
15:00+14wsw8144971 0.0 10092208
18:00+11wsw612462 0.0 1010381
21:00+7sw38630 0.0 1011154
23 october, sat
sat2300:00+9sw6144467 0.0 1011570
03:00+8sw714620 0.0 1010581
06:00+7wsw614686 0.0 1011554
09:00+7wsw7126689 0.0 10111012
12:00+10w8115127 0.0 10121596
15:00+9w6116199 0.3 10131423
18:00+6w6136327 0.2 1015709
21:00+5w6127611 0.2 1017658
24 october, sun
sun2400:00+5wsw6107091 0.0 1017984
03:00+6wsw6126797 0.0 1017709
06:00+5w5118218 0.0 1017748
09:00+4wnw6977100 0.1 10191136
12:00+5wnw7974100 0.1 10201046
15:00+4nw71073100 0.5 10211175
18:00+3nw7127992 0.2 10231036
21:00+2nnw7127460 0.3 1025932
25 october, mon
mon2500:00+1nnw6128222 0.0 1027588
03:00−1nnw5118748 0.0 1029416
06:00−2nnw49935 0.0 1031264
09:000n48835 0.0 1033331
12:00+4n45555 0.0 1034815
15:00+5n34465 0.0 10341000
18:00+1nne22590 0.0 103510
21:000e11655 0.0 103610